Dewpoint
57 58 72 72 72 74 74 73 73 73 73 74 74 74 74 74 74 74 74 74 74 73 72 71 72 72 70 70 72 72 71 70 69 69 69 67 67 68 68 68 69 61 69
59 59 71 72 72 74 74 73 73 73 74 74 73 73 74 74 74 74 74 74 73 73 71 71 70 70 71 72 72 72 71 70 70 69 69 67 66 67 67 68 70 68 69
60 60 66 72 72 73 74 74 74 74 74 74 74 73 74 74 73 73 73 73 73 72 70 70 70 70 72 72 72 71 71 70 70 70 70 59 60 66 66 67 68 69 70
61 60 62 72 72 73 73 73 73 74 74 73 73 73 73 73 73 73 73 72 72 72 71 70 70 71 71 71 71 71 70 70 69 68 59 60 62 68 67 66 66 67 68
62 60 62 71 72 72 72 73 73 73 73 73 73 73 73 73 73 73 72 72 72 72 71 70 70 70 70 70 70 70 69 69 68 64 55 60 61 69 68 68 67 66 66
62 62 68 70 71 72 72 72 73 72 72 72 72 72 73 72 72 72 72 72 72 72 71 70 70 69 69 68 68 68 68 67 66 51 55 58 58 69 69 70 69 68 68
63 64 66 70 71 72 72 72 72 72 72 72 72 72 72 72 72 72 72 72 72 71 71 71 70 69 69 68 68 68 67 67 61 56 58 59 62 66 67 68 69 68 68
64 66 64 70 71 71 71 71 71 71 71 71 72 72 72 72 71 71 71 71 71 70 70 71 69 70 69 69 68 66 66 66 59 56 57 59 68 68 66 66 67 68 68
66 67 66 67 69 70 70 70 70 70 71 71 71 71 71 71 70 71 71 71 71 70 70 70 69 69 69 68 66 65 65 63 62 60 59 59 69 70 69 67 67 66 66
68 68 68 67 67 68 69 69 69 70 70 70 71 71 70 70 70 71 71 71 70 70 69 69 69 68 68 67 65 65 64 64 61 61 63 63 69 70 70 69 68 67 67
66 68 69 68 67 68 67 68 70 70 70 70 70 70 68 64 68 69 67 70 69 68 68 68 68 67 66 65 65 64 64 59 60 59 60 67 68 68 70 71 70 69 68
63 66 68 68 67 67 63 66 67 67 68 68 68 68 63 64 64 63 66 69 68 67 67 67 66 66 65 60 59 63 59 60 61 60 60 65 67 68 69 71 71 70 70
58 63 65 68 68 67 63 64 63 63 64 66 67 67 64 64 64 63 64 64 64 66 61 63 63 61 61 59 58 59 59 62 59 60 62 65 66 68 69 71 72 71 70
56 61 64 66 67 68 63 63 62 61 62 63 65 68 65 64 64 62 60 60 61 59 58 58 58 60 60 61 61 62 63 61 59 60 63 66 66 67 69 70 71 72 70
56 60 64 66 67 67 66 63 63 63 62 62 64 66 65 63 64 62 61 60 60 59 59 59 58 58 60 61 61 62 62 62 62 60 60 65 65 66 68 70 71 72 72
56 59 63 65 67 67 66 66 64 64 63 63 62 64 67 64 63 62 62 61 60 60 59 59 58 59 59 59 60 61 61 60 60 61 59 61 64 65 66 68 71 71 72
56 57 62 65 67 67 67 67 66 64 64 63 62 64 66 66 65 64 61 61 59 60 62 61 60 60 59 59 61 59 60 60 58 59 59 59 60 63 64 66 68 69 71
55 56 59 61 65 67 67 66 65 64 65 63 63 62 65 65 65 65 61 61 59 60 61 59 60 59 59 58 59 58 57 58 58 59 58 58 57 57 60 63 65 66 68
51 57 57 62 63 65 67 65 66 66 65 63 63 62 64 65 64 64 60 59 61 59 59 58 58 58 56 56 55 56 56 56 57 55 57 58 60 59 57 58 62 63 65
43 54 58 59 62 64 64 65 63 64 65 64 63 62 63 63 64 64 61 60 61 59 58 57 59 58 57 55 51 50 54 54 54 54 54 53 54 56 57 59 59 61 61
47 48 52 59 62 61 61 61 61 61 62 64 63 64 64 63 64 64 61 61 62 60 59 60 59 60 57 58 56 55 55 57 60 58 57 57 57 56 59 60 62 60 59
46 48 50 52 59 62 61 61 59 58 60 61 62 63 64 64 65 64 64 60 61 59 61 61 61 57 56 57 56 53 51 52 54 60 60 59 61 58 57 60 62 62 62
42 47 47 50 53 57 63 63 62 60 59 59 60 61 63 64 64 65 63 63 64 62 58 64 63 62 55 57 61 55 52 49 48 54 61 61 62 61 61 60 61 62 63
41 43 45 47 51 54 59 63 63 60 59 59 59 59 61 64 64 65 66 65 66 63 63 62 62 63 62 56 59 61 63 57 52 50 54 59 61 61 63 61 60 62 62
39 41 43 44 47 51 56 61 63 63 61 60 60 61 63 64 65 63 65 66 67 66 66 66 65 65 61 61 58 58 61 59 61 58 53 53 56 59 61 61 61 61 62
36 39 40 40 41 45 51 54 62 64 63 61 60 59 59 60 61 64 64 66 68 66 66 65 65 65 64 63 61 59 57 56 56 56 57 57 57 58 59 61 63 63 63
Lifted_Index
1 0 -2 -3 -3 -4 -4 -4 -4 -4 -5 -6 -6 -6 -7 -7 -7 -7 -7 -7 -7 -6 -5 -4 -4 -4 -3 -4 -4 -3 -3 -2 -1 -1 -0 -0 0 0 0 0 0 0 -0
0 0 -1 -3 -3 -4 -4 -4 -4 -4 -5 -5 -6 -6 -7 -7 -7 -7 -7 -6 -6 -6 -5 -4 -4 -3 -3 -4 -4 -3 -3 -2 -2 -1 -1 0 1 1 0 0 -0 -0 -1
0 0 -1 -2 -3 -4 -4 -4 -4 -4 -5 -5 -5 -6 -6 -6 -6 -6 -6 -6 -6 -5 -4 -3 -3 -3 -3 -4 -4 -3 -3 -2 -2 -1 -1 0 1 1 1 0 -0 -0 -1
-0 0 -0 -2 -3 -4 -4 -4 -4 -4 -4 -4 -5 -5 -5 -6 -6 -6 -6 -5 -5 -4 -4 -3 -3 -3 -3 -3 -3 -3 -2 -1 -1 -0 0 0 0 -0 -0 0 0 0 -0
-0 0 -0 -2 -3 -3 -3 -4 -4 -4 -4 -4 -4 -4 -4 -5 -5 -5 -5 -5 -4 -4 -3 -3 -2 -2 -2 -2 -2 -2 -1 -0 1 1 2 1 0 -1 -1 -1 0 0 0
-1 -0 -1 -2 -3 -3 -3 -3 -3 -3 -3 -3 -3 -3 -4 -4 -4 -4 -4 -4 -4 -4 -3 -2 -2 -2 -1 -1 -1 -0 0 1 2 2 2 2 1 -1 -1 -1 -1 -0 -0
-1 -1 -1 -1 -2 -3 -3 -3 -3 -2 -2 -3 -3 -3 -3 -3 -3 -3 -3 -3 -3 -3 -3 -2 -2 -1 -1 -0 0 1 1 1 1 2 2 1 1 -0 -1 -1 -1 -1 -0
-2 -1 -1 -1 -2 -2 -3 -3 -2 -2 -2 -2 -3 -3 -3 -3 -3 -3 -3 -3 -2 -2 -2 -2 -1 -1 -1 -0 1 1 2 1 1 1 1 1 0 -0 -0 0 0 -0 -0
-2 -2 -1 -1 -1 -2 -2 -2 -2 -2 -2 -2 -2 -2 -2 -2 -2 -2 -2 -2 -2 -2 -2 -1 -1 -1 -1 0 1 2 2 1 0 -0 -0 0 -0 -1 -1 -0 0 1 1
-2 -2 -1 -1 -1 -1 -1 -1 -1 -2 -2 -2 -2 -2 -2 -1 -2 -2 -2 -2 -1 -1 -1 -1 -0 -0 0 1 2 2 2 1 -0 -1 -1 -0 -0 -1 -1 -1 -0 0 1
-2 -2 -2 -1 -1 -1 -1 -1 -1 -1 -1 -1 -1 -1 -1 -0 -1 -1 -1 -1 -1 -0 0 0 0 1 1 1 2 2 2 1 -0 -0 -0 0 0 -0 -1 -2 -1 -1 -0
-2 -2 -2 -2 -1 -1 -1 -1 -1 -1 -1 -1 -1 -1 -0 0 -0 -0 -0 -0 0 1 1 1 1 1 1 1 2 2 1 0 -0 -0 -0 0 1 -0 -1 -2 -2 -1 -1
-1 -1 -2 -2 -1 -1 -0 -0 -0 -0 -0 -1 -1 -1 -0 -0 0 0 0 1 1 2 2 2 2 2 2 1 1 1 1 0 -0 -0 -0 0 1 -0 -1 -2 -2 -2 -1
0 -1 -1 -2 -2 -1 -0 0 0 0 0 -0 -1 -1 -1 -0 -0 0 1 1 2 2 3 3 2 2 2 1 1 1 0 0 0 -0 -0 0 1 0 -1 -2 -2 -2 -2
0 -0 -1 -2 -2 -2 -1 -0 0 0 1 0 -0 -1 -1 -0 -0 0 1 1 1 2 2 2 2 2 2 1 1 1 1 1 0 0 0 0 1 1 1 -1 -2 -2 -2
1 0 -1 -2 -2 -2 -2 -1 -0 0 0 1 0 -0 -1 -1 -0 0 1 1 1 2 2 2 2 2 2 2 1 1 1 1 1 1 1 1 1 1 1 1 -0 -1 -2
1 1 -0 -1 -2 -2 -2 -2 -1 -1 -0 0 1 0 -0 -1 -0 0 1 1 1 1 1 2 2 2 2 2 2 2 2 2 2 2 2 2 2 2 2 2 1 0 -1
1 1 1 -0 -1 -2 -2 -2 -1 -1 -1 -0 0 1 0 -0 -0 0 1 1 2 1 1 2 2 2 2 2 2 2 2 3 3 3 3 2 2 2 2 2 2 2 1
2 1 1 0 -0 -1 -1 -1 -1 -1 -1 -1 -0 0 1 0 0 0 1 1 1 1 1 2 2 2 2 3 3 3 3 3 3 3 3 3 3 3 3 3 3 2 2
4 3 1 0 -0 -1 -1 -1 -0 -0 -1 -1 -1 -0 0 1 1 1 1 1 1 1 1 2 2 2 2 3 3 3 3 3 3 3 3 3 3 3 3 2 2 2 2
6 5 2 1 -0 -1 -1 -0 0 0 0 -0 -0 -0 -0 0 1 1 1 1 1 1 1 1 2 2 2 2 3 3 3 3 2 2 2 2 2 2 2 1 1 1 1
7 6 5 3 1 -1 -1 -1 -0 1 1 1 0 -0 -0 -0 -0 0 0 1 1 1 1 1 1 2 2 2 2 3 3 3 2 1 1 1 1 1 1 1 0 -0 -0
8 7 6 5 3 0 -1 -2 -1 0 1 1 1 0 -1 -1 -1 -1 -1 -0 0 1 1 1 1 1 2 2 2 2 2 2 2 2 1 1 0 0 0 0 -0 -0 -0
10 9 8 6 5 3 0 -2 -2 -1 -1 -0 0 -0 -0 -1 -1 -2 -2 -1 -1 -0 0 0 0 1 1 1 1 1 1 1 1 1 1 0 0 -0 -0 -0 -0 -0 -0
11 11 10 8 6 4 2 -0 -2 -2 -2 -1 -1 -1 -1 -1 -1 -1 -2 -2 -2 -2 -1 -1 -1 -0 0 1 1 0 0 1 1 1 1 0 -0 -1 -1 -1 -1 -0 -0
12 12 11 9 6 4 3 1 -1 -3 -3 -2 -1 -1 -1 -1 -1 -1 -2 -2 -3 -3 -2 -2 -1 -1 -0 0 0 1 1 1 0 0 0 -0 -0 -1 -1 -1 -1 -1 -0